Hourly Weather Maturín

Today, 18 January, Monday

Time Temperature Precipitation Wind Pressure Humidity
00:00 +23°C° 0 mm 1 mps 755 mmHg 95%
01:00 +23°C° 0 mm 1 mps 755 mmHg 96%
02:00 +23°C° 0 mm 1 mps 755 mmHg 96%
03:00 +21°C° 0 mm 0 mps 755 mmHg 96%
04:00 +21°C° 0 mm 0 mps 755 mmHg 97%
05:00 +20°C° 0 mm 0 mps 755 mmHg 97%
06:00 +21°C° 0.1 mm 0 mps 755 mmHg 96%
07:00 +24°C° 0.1 mm 1 mps 756 mmHg 94%
08:00 +25°C° 0.1 mm 1 mps 756 mmHg 93%
09:00 +27°C° 0 mm 1 mps 756 mmHg 82%
10:00 +29°C° 0 mm 2 mps 757 mmHg 71%
11:00 +31°C° 0 mm 2 mps 757 mmHg 60%
12:00 +31°C° 0 mm 2 mps 756 mmHg 58%
13:00 +32°C° 0 mm 2 mps 756 mmHg 56%
14:00 +34°C° 0 mm 2 mps 755 mmHg 54%
15:00 +33°C° 0 mm 3 mps 754 mmHg 58%
16:00 +31°C° 0 mm 3 mps 754 mmHg 62%
17:00 +30°C° 0 mm 3 mps 754 mmHg 66%
18:00 +29°C° 0 mm 3 mps 754 mmHg 72%
19:00 +27°C° 0 mm 3 mps 754 mmHg 79%
20:00 +26°C° 0 mm 3 mps 755 mmHg 85%
21:00 +25°C° 0 mm 2 mps 755 mmHg 88%
22:00 +25°C° 0 mm 2 mps 756 mmHg 90%
23:00 +24°C° 0 mm 2 mps 756 mmHg 93%

Tomorrow, 19 January, Tuesday

Time Temperature Precipitation Wind Pressure Humidity
00:00 +24°C° 0.1 mm 2 mps 756 mmHg 94%
01:00 +24°C° 0.1 mm 2 mps 756 mmHg 94%
02:00 +23°C° 0.1 mm 1 mps 756 mmHg 95%
03:00 +23°C° 0.1 mm 1 mps 755 mmHg 96%
04:00 +23°C° 0.1 mm 1 mps 755 mmHg 96%
05:00 +23°C° 0.1 mm 1 mps 755 mmHg 97%
06:00 +24°C° 0 mm 1 mps 756 mmHg 95%
07:00 +25°C° 0 mm 2 mps 756 mmHg 92%
08:00 +25°C° 0 mm 2 mps 757 mmHg 90%
09:00 +27°C° 0.2 mm 2 mps 757 mmHg 84%
10:00 +28°C° 0.2 mm 3 mps 757 mmHg 77%
11:00 +30°C° 0.2 mm 4 mps 757 mmHg 71%
12:00 +30°C° 0.1 mm 4 mps 756 mmHg 69%
13:00 +32°C° 0.1 mm 4 mps 755 mmHg 66%
14:00 +32°C° 0.1 mm 4 mps 755 mmHg 64%
15:00 +30°C° 0.1 mm 4 mps 754 mmHg 66%
16:00 +30°C° 0.1 mm 4 mps 754 mmHg 69%
17:00 +29°C° 0.1 mm 4 mps 753 mmHg 72%
18:00 +28°C° 0 mm 3 mps 754 mmHg 77%
19:00 +26°C° 0 mm 3 mps 755 mmHg 82%
20:00 +25°C° 0 mm 2 mps 755 mmHg 86%
21:00 +24°C° 0 mm 2 mps 755 mmHg 89%
22:00 +24°C° 0 mm 2 mps 755 mmHg 91%
23:00 +23°C° 0 mm 1 mps 756 mmHg 93%

Day after tomorrow, 20 January, Wednesday

Time Temperature Precipitation Wind Pressure Humidity
00:00 +24°C° 0.2 mm 1 mps 756 mmHg 94%
01:00 +24°C° 0.2 mm 1 mps 755 mmHg 95%
02:00 +24°C° 0.2 mm 1 mps 755 mmHg 96%
03:00 +23°C° 0.1 mm 1 mps 755 mmHg 96%
04:00 +23°C° 0.1 mm 1 mps 755 mmHg 97%
05:00 +23°C° 0.1 mm 2 mps 755 mmHg 97%
06:00 +23°C° 0 mm 2 mps 755 mmHg 95%
07:00 +24°C° 0 mm 2 mps 756 mmHg 93%
08:00 +24°C° 0 mm 2 mps 756 mmHg 90%
09:00 +26°C° 0 mm 2 mps 756 mmHg 81%
10:00 +28°C° 0 mm 2 mps 756 mmHg 72%
11:00 +30°C° 0 mm 3 mps 756 mmHg 62%
12:00 +31°C° 0.1 mm 3 mps 755 mmHg 60%
13:00 +31°C° 0.1 mm 3 mps 755 mmHg 57%
14:00 +33°C° 0.1 mm 3 mps 754 mmHg 55%
15:00 +31°C° 0 mm 3 mps 753 mmHg 58%
16:00 +30°C° 0 mm 3 mps 753 mmHg 62%
17:00 +30°C° 0 mm 3 mps 752 mmHg 66%
18:00 +28°C° 0 mm 3 mps 753 mmHg 72%
19:00 +26°C° 0 mm 2 mps 753 mmHg 78%
20:00 +24°C° 0 mm 2 mps 754 mmHg 84%
21:00 +24°C° 0 mm 2 mps 754 mmHg 87%
22:00 +23°C° 0 mm 1 mps 755 mmHg 91%
23:00 +23°C° 0 mm 1 mps 755 mmHg 94%

21 January, Thursday

Time Temperature Precipitation Wind Pressure Humidity
00:00 +23°C° 0 mm 1 mps 755 mmHg 95%
01:00 +23°C° 0 mm 1 mps 755 mmHg 95%
02:00 +23°C° 0 mm 1 mps 755 mmHg 95%
03:00 +22°C° 0 mm 1 mps 755 mmHg 96%
04:00 +22°C° 0 mm 1 mps 755 mmHg 96%
05:00 +22°C° 0 mm 1 mps 755 mmHg 96%
06:00 +23°C° 0 mm 1 mps 755 mmHg 92%
07:00 +24°C° 0 mm 1 mps 756 mmHg 88%
08:00 +23°C° 0 mm 0 mps 756 mmHg 85%
09:00 +27°C° 0 mm 1 mps 756 mmHg 77%
10:00 +29°C° 0 mm 2 mps 756 mmHg 70%
11:00 +31°C° 0 mm 2 mps 756 mmHg 62%
12:00 +31°C° 0 mm 2 mps 755 mmHg 60%
13:00 +32°C° 0 mm 2 mps 754 mmHg 58%
14:00 +32°C° 0 mm 2 mps 754 mmHg 56%
15:00 +32°C° 0 mm 2 mps 753 mmHg 59%
16:00 +31°C° 0 mm 3 mps 753 mmHg 62%
17:00 +31°C° 0 mm 3 mps 752 mmHg 65%
18:00 +29°C° 0 mm 3 mps 753 mmHg 71%
19:00 +27°C° 0 mm 3 mps 753 mmHg 77%
20:00 +26°C° 0 mm 3 mps 754 mmHg 83%
21:00 +25°C° 0 mm 2 mps 754 mmHg 86%
22:00 +25°C° 0 mm 2 mps 755 mmHg 89%
23:00 +24°C° 0 mm 2 mps 755 mmHg 92%

22 January, Friday

Time Temperature Precipitation Wind Pressure Humidity
00:00 +24°C° 0 mm 2 mps 755 mmHg 94%
01:00 +24°C° 0 mm 1 mps 755 mmHg 96%
02:00 +23°C° 0 mm 1 mps 755 mmHg 97%
03:00 +23°C° 0 mm 1 mps 755 mmHg 97%
04:00 +23°C° 0 mm 1 mps 755 mmHg 97%
05:00 +23°C° 0 mm 1 mps 755 mmHg 97%
06:00 +24°C° 0 mm 1 mps 755 mmHg 94%
07:00 +25°C° 0 mm 1 mps 756 mmHg 91%
08:00 +25°C° 0 mm 1 mps 756 mmHg 88%
09:00 +27°C° 0.1 mm 1 mps 756 mmHg 79%
10:00 +29°C° 0.1 mm 2 mps 757 mmHg 71%
11:00 +31°C° 0.1 mm 2 mps 757 mmHg 62%
12:00 +31°C° 0.3 mm 3 mps 756 mmHg 63%
13:00 +31°C° 0.3 mm 3 mps 755 mmHg 64%
14:00 +33°C° 0.3 mm 3 mps 754 mmHg 65%
15:00 +31°C° 0.3 mm 3 mps 754 mmHg 68%
16:00 +30°C° 0.3 mm 3 mps 754 mmHg 71%
17:00 +29°C° 0.3 mm 4 mps 753 mmHg 74%
18:00 +28°C° 0.1 mm 3 mps 754 mmHg 80%
19:00 +26°C° 0.1 mm 2 mps 754 mmHg 86%
20:00 +25°C° 0.1 mm 2 mps 755 mmHg 92%
21:00 +25°C° 0.6 mm 2 mps 755 mmHg 93%
22:00 +25°C° 0.6 mm 2 mps 756 mmHg 94%
23:00 +24°C° 0.6 mm 2 mps 756 mmHg 95%

23 January, Saturday

Time Temperature Precipitation Wind Pressure Humidity
00:00 +24°C° 0.3 mm 2 mps 756 mmHg 96%
01:00 +24°C° 0.3 mm 2 mps 755 mmHg 96%
02:00 +24°C° 0.3 mm 1 mps 755 mmHg 96%
03:00 +24°C° 0.1 mm 1 mps 755 mmHg 96%
04:00 +24°C° 0.1 mm 1 mps 755 mmHg 97%
05:00 +24°C° 0.1 mm 1 mps 755 mmHg 97%
06:00 +24°C° 0 mm 1 mps 755 mmHg 95%
07:00 +25°C° 0 mm 1 mps 755 mmHg 93%
08:00 +25°C° 0 mm 1 mps 756 mmHg 91%
09:00 +27°C° 0 mm 2 mps 756 mmHg 81%
10:00 +29°C° 0 mm 2 mps 756 mmHg 72%
11:00 +31°C° 0 mm 3 mps 756 mmHg 62%
12:00 +33°C° 0 mm 3 mps 755 mmHg 59%
13:00 +33°C° 0 mm 3 mps 755 mmHg 56%
14:00 +34°C° 0 mm 3 mps 754 mmHg 53%
15:00 +33°C° 0.1 mm 3 mps 754 mmHg 57%
16:00 +31°C° 0.1 mm 3 mps 753 mmHg 61%
17:00 +30°C° 0.1 mm 3 mps 753 mmHg 65%
18:00 +29°C° 0 mm 3 mps 753 mmHg 72%
19:00 +27°C° 0 mm 3 mps 754 mmHg 79%
20:00 +25°C° 0 mm 2 mps 754 mmHg 86%
21:00 +25°C° 0.1 mm 2 mps 755 mmHg 89%
22:00 +25°C° 0.1 mm 2 mps 755 mmHg 91%
23:00 +24°C° 0.1 mm 2 mps 756 mmHg 94%
Show more